Location: Goll?ig?dem
(16.6773°N, 80.7332°E)
Time: 02:31:54
(UTC+00:00)

Cosmos 1802 Rocket - Pass Details

Date: 21 April 2021
Orbit: 953 x 1012 km, 82.9° (Epoch: 15 May)

Event Time Altitude Azimuth Distance (km) Brightness Sun altitude
Rises 23:14:41 0° 353° (N) 3,651 7.2 -15.3°
Reaches altitude 10° 23:17:12 10° 352° (N) 2,696 6.4 -14.7°
Maximum altitude 23:23:20 77° 267° (W) 981 3.9 -13.3°
Drops below altitude 10° 23:29:26 10° 182° (S) 2,672 6.1 -11.9°
Sets 23:31:55 0° 180° (S) 3,616 6.8 -11.3°
